When you browse on this site, cookies collect data to enhance your experience and personalize the content and advertising you see.
Visit our Privacy Policy to learn more. By continuing to use the site, you agree to this use of cookies and data.
  • In Hungary
  • List of Countries
  • For 7 days
  • Water Temperature
  • Weather Map
  • News
  • Weather Widgets
  • user-avatar
    Login

    Hourly Weather Podbereze

    Today, 7 December, Saturday

    Time Temperature Precipitation Wind Pressure Humidity
    00:00 -2°C° 0.2 mm 5 mps 739 mmHg 81%
    01:00 -2°C° 0.2 mm 5 mps 739 mmHg 83%
    02:00 -2°C° 0 mm 4 mps 739 mmHg 84%
    03:00 -2°C° 0.2 mm 4 mps 738 mmHg 85%
    04:00 -2°C° 0.2 mm 4 mps 738 mmHg 86%
    05:00 -2°C° 0.2 mm 4 mps 738 mmHg 88%
    06:00 -2°C° 0.3 mm 4 mps 738 mmHg 88%
    07:00 -2°C° 0.3 mm 4 mps 738 mmHg 88%
    08:00 -2°C° 0 mm 4 mps 738 mmHg 86%
    09:00 -2°C° 0 mm 4 mps 737 mmHg 83%
    10:00 -2°C° 0 mm 5 mps 737 mmHg 80%
    11:00 -2°C° 0 mm 5 mps 737 mmHg 76%
    12:00 -2°C° 0 mm 5 mps 736 mmHg 75%
    13:00 -1°C° 0 mm 5 mps 736 mmHg 74%
    14:00 -1°C° 0 mm 5 mps 735 mmHg 73%
    15:00 -2°C° 0 mm 5 mps 735 mmHg 73%
    16:00 -3°C° 0 mm 6 mps 735 mmHg 74%
    17:00 -3°C° 0 mm 6 mps 734 mmHg 74%
    18:00 -3°C° 0.1 mm 6 mps 734 mmHg 78%
    19:00 -3°C° 0.1 mm 6 mps 734 mmHg 82%
    20:00 -3°C° 0.1 mm 6 mps 734 mmHg 86%
    21:00 -3°C° 0 mm 6 mps 733 mmHg 87%
    22:00 -2°C° 0 mm 6 mps 733 mmHg 88%
    23:00 -2°C° 0 mm 7 mps 732 mmHg 90%

    Tomorrow, 8 December, Sunday

    Time Temperature Precipitation Wind Pressure Humidity
    00:00 -1°C° 0.1 mm 7 mps 733 mmHg 91%
    01:00 -1°C° 0.1 mm 7 mps 733 mmHg 92%
    02:00 0°C° 0.1 mm 7 mps 733 mmHg 93%
    03:00 0°C° 0 mm 7 mps 732 mmHg 89%
    04:00 0°C° 0 mm 7 mps 732 mmHg 85%
    05:00 0°C° 0 mm 7 mps 732 mmHg 82%
    06:00 -1°C° 0 mm 7 mps 733 mmHg 83%
    07:00 -1°C° 0 mm 7 mps 733 mmHg 83%
    08:00 -1°C° 0 mm 6 mps 734 mmHg 84%
    09:00 -1°C° 0 mm 6 mps 734 mmHg 83%
    10:00 -1°C° 0 mm 6 mps 735 mmHg 83%
    11:00 -1°C° 0 mm 6 mps 735 mmHg 82%
    12:00 -1°C° 0 mm 6 mps 736 mmHg 82%
    13:00 0°C° 0 mm 5 mps 736 mmHg 83%
    14:00 0°C° 0 mm 4 mps 737 mmHg 83%
    15:00 -1°C° 0 mm 4 mps 737 mmHg 85%
    16:00 -1°C° 0 mm 4 mps 737 mmHg 87%
    17:00 -2°C° 0 mm 4 mps 737 mmHg 89%
    18:00 -1°C° 0 mm 4 mps 737 mmHg 91%
    19:00 -1°C° 0 mm 4 mps 737 mmHg 92%
    20:00 -1°C° 0 mm 4 mps 737 mmHg 94%
    21:00 0°C° 0.1 mm 5 mps 736 mmHg 94%
    22:00 -1°C° 0.1 mm 6 mps 736 mmHg 95%
    23:00 +1°C° 0.1 mm 6 mps 735 mmHg 96%

    Day after tomorrow, 9 December, Monday

    Time Temperature Precipitation Wind Pressure Humidity
    00:00 +1°C° 0.2 mm 6 mps 735 mmHg 95%
    01:00 +1°C° 0.2 mm 6 mps 735 mmHg 94%
    02:00 0°C° 0.2 mm 7 mps 734 mmHg 93%
    03:00 0°C° 0.1 mm 7 mps 734 mmHg 92%
    04:00 0°C° 0.1 mm 7 mps 734 mmHg 91%
    05:00 0°C° 0.1 mm 7 mps 733 mmHg 90%
    06:00 +1°C° 0.1 mm 6 mps 733 mmHg 90%
    07:00 +1°C° 0.1 mm 6 mps 734 mmHg 91%
    08:00 +1°C° 0.1 mm 6 mps 734 mmHg 91%
    09:00 +1°C° 0 mm 6 mps 734 mmHg 91%
    10:00 +2°C° 0 mm 6 mps 734 mmHg 91%
    11:00 +2°C° 0 mm 6 mps 734 mmHg 90%
    12:00 +2°C° 0 mm 6 mps 734 mmHg 90%
    13:00 +2°C° 0 mm 5 mps 734 mmHg 90%
    14:00 +3°C° 0 mm 5 mps 734 mmHg 90%
    15:00 +3°C° 0.4 mm 5 mps 734 mmHg 91%
    16:00 +3°C° 0.4 mm 5 mps 734 mmHg 91%
    17:00 +3°C° 0.4 mm 5 mps 734 mmHg 92%
    18:00 +3°C° 0.1 mm 5 mps 734 mmHg 92%
    19:00 +3°C° 0.1 mm 5 mps 734 mmHg 91%
    20:00 +3°C° 0.1 mm 5 mps 735 mmHg 91%
    21:00 +3°C° 0 mm 5 mps 735 mmHg 90%
    22:00 +3°C° 0 mm 5 mps 735 mmHg 90%
    23:00 +3°C° 0 mm 5 mps 736 mmHg 90%

    10 December, Tuesday

    Time Temperature Precipitation Wind Pressure Humidity
    00:00 +2°C° 0 mm 5 mps 736 mmHg 91%
    01:00 +3°C° 0 mm 4 mps 737 mmHg 92%
    02:00 +1°C° 0 mm 4 mps 737 mmHg 93%
    03:00 +1°C° 0 mm 4 mps 737 mmHg 93%
    04:00 +1°C° 0 mm 4 mps 737 mmHg 94%
    05:00 0°C° 0 mm 4 mps 737 mmHg 94%
    06:00 0°C° 0 mm 4 mps 738 mmHg 95%
    07:00 0°C° 0 mm 4 mps 738 mmHg 95%
    08:00 0°C° 0 mm 5 mps 738 mmHg 95%
    09:00 0°C° 0 mm 5 mps 738 mmHg 93%
    10:00 +1°C° 0 mm 5 mps 739 mmHg 91%
    11:00 +1°C° 0 mm 5 mps 739 mmHg 89%
    12:00 +1°C° 0 mm 5 mps 739 mmHg 89%
    13:00 +1°C° 0 mm 4 mps 739 mmHg 89%
    14:00 +1°C° 0 mm 4 mps 739 mmHg 89%
    15:00 +1°C° 0 mm 4 mps 739 mmHg 89%
    16:00 +1°C° 0 mm 4 mps 739 mmHg 88%
    17:00 +1°C° 0 mm 4 mps 739 mmHg 88%
    18:00 +1°C° 0 mm 5 mps 740 mmHg 90%
    19:00 +1°C° 0 mm 5 mps 741 mmHg 92%
    20:00 +1°C° 0 mm 5 mps 741 mmHg 94%
    21:00 0°C° 0.2 mm 5 mps 742 mmHg 90%
    22:00 -1°C° 0.2 mm 4 mps 742 mmHg 86%
    23:00 -2°C° 0.2 mm 4 mps 743 mmHg 82%

    11 December, Wednesday

    Time Temperature Precipitation Wind Pressure Humidity
    00:00 -2°C° 0 mm 4 mps 744 mmHg 81%
    01:00 -3°C° 0 mm 4 mps 745 mmHg 80%
    02:00 -3°C° 0 mm 4 mps 745 mmHg 80%
    03:00 -3°C° 0 mm 4 mps 746 mmHg 78%
    04:00 -4°C° 0 mm 4 mps 747 mmHg 77%
    05:00 -4°C° 0 mm 4 mps 747 mmHg 76%
    06:00 -4°C° 0 mm 4 mps 748 mmHg 77%
    07:00 -4°C° 0 mm 4 mps 748 mmHg 77%
    08:00 -4°C° 0 mm 3 mps 748 mmHg 78%
    09:00 -2°C° 0 mm 3 mps 749 mmHg 76%
    10:00 -2°C° 0 mm 3 mps 749 mmHg 74%
    11:00 -2°C° 0 mm 4 mps 749 mmHg 72%
    12:00 -1°C° 0 mm 3 mps 749 mmHg 72%
    13:00 -1°C° 0 mm 3 mps 750 mmHg 72%
    14:00 -1°C° 0 mm 2 mps 750 mmHg 72%
    15:00 -1°C° 0 mm 2 mps 750 mmHg 74%
    16:00 -2°C° 0 mm 2 mps 750 mmHg 76%
    17:00 -1°C° 0 mm 1 mps 750 mmHg 78%
    18:00 -3°C° 0 mm 2 mps 750 mmHg 77%
    19:00 -3°C° 0 mm 2 mps 750 mmHg 76%
    20:00 -3°C° 0 mm 2 mps 751 mmHg 74%
    21:00 -3°C° 0 mm 2 mps 751 mmHg 73%
    22:00 -3°C° 0 mm 2 mps 751 mmHg 71%
    23:00 -3°C° 0 mm 2 mps 751 mmHg 70%

    12 December, Thursday

    Time Temperature Precipitation Wind Pressure Humidity
    00:00 -3°C° 0 mm 2 mps 750 mmHg 69%
    01:00 -3°C° 0 mm 2 mps 750 mmHg 68%
    02:00 -3°C° 0 mm 2 mps 750 mmHg 68%
    03:00 -3°C° 0 mm 2 mps 750 mmHg 68%
    04:00 -4°C° 0 mm 3 mps 750 mmHg 68%
    05:00 -4°C° 0 mm 3 mps 749 mmHg 69%
    06:00 -5°C° 0 mm 3 mps 749 mmHg 68%
    07:00 -5°C° 0 mm 3 mps 749 mmHg 68%
    08:00 -5°C° 0 mm 3 mps 749 mmHg 68%
    09:00 -4°C° 0 mm 3 mps 749 mmHg 65%
    10:00 -4°C° 0 mm 4 mps 749 mmHg 62%
    11:00 -3°C° 0 mm 4 mps 749 mmHg 58%
    12:00 -3°C° 0 mm 4 mps 749 mmHg 57%
    13:00 -3°C° 0 mm 4 mps 748 mmHg 56%
    14:00 -3°C° 0 mm 4 mps 748 mmHg 55%
    15:00 -4°C° 0 mm 4 mps 748 mmHg 58%
    16:00 -4°C° 0 mm 4 mps 748 mmHg 60%
    17:00 -5°C° 0 mm 4 mps 748 mmHg 63%
    18:00 -5°C° 0 mm 4 mps 748 mmHg 64%
    19:00 -5°C° 0 mm 4 mps 748 mmHg 65%
    20:00 -7°C° 0 mm 4 mps 748 mmHg 66%
    21:00 -7°C° 0 mm 4 mps 748 mmHg 68%
    22:00 -6°C° 0 mm 3 mps 748 mmHg 69%
    23:00 -6°C° 0 mm 3 mps 747 mmHg 70%
    Show more